Time,TemperatureF,DewpointF,PressureIn,WindDirection,WindDirectionDegrees,WindSpeedMPH,WindSpeedGustMPH,Humidity,HourlyPrecipIn,Conditions,Clouds,dailyrainin,SoftwareType,DateUTC
2013-03-07 00:02:00,36.0,-99.9,29.81,NNE,16,12.0,28.0,-999,-99.99,,,-99.99,,2013-03-07 05:02:00,
2013-03-07 00:12:00,36.0,-99.9,29.80,NNE,16,8.0,20.0,-999,-99.99,,,-99.99,,2013-03-07 05:12:00,
2013-03-07 00:23:00,36.0,-99.9,29.80,North,9,11.0,23.0,-999,-99.99,,,-99.99,,2013-03-07 05:23:00,
2013-03-07 00:32:00,36.0,-99.9,29.80,NNE,17,9.0,22.0,-999,-99.99,,,-99.99,,2013-03-07 05:32:00,
2013-03-07 00:42:00,36.0,-99.9,29.81,NNE,15,11.0,24.0,-999,-99.99,,,-99.99,,2013-03-07 05:42:00,
2013-03-07 00:53:00,36.0,-99.9,29.81,North,6,9.0,16.0,-999,-99.99,,,-99.99,,2013-03-07 05:53:00,
2013-03-07 01:02:00,36.0,-99.9,29.81,North,9,10.0,28.0,-999,-99.99,,,-99.99,,2013-03-07 06:02:00,
2013-03-07 01:11:00,36.0,-99.9,29.82,North,3,11.0,21.0,-999,-99.99,,,-99.99,,2013-03-07 06:11:00,
2013-03-07 01:22:00,35.0,-99.9,29.82,North,3,12.0,23.0,-999,-99.99,,,-99.99,,2013-03-07 06:22:00,
2013-03-07 01:32:00,35.0,-99.9,29.83,North,3,12.0,25.0,-999,-99.99,,,-99.99,,2013-03-07 06:32:00,
2013-03-07 01:42:00,35.0,-99.9,29.83,North,7,8.0,21.0,-999,-99.99,,,-99.99,,2013-03-07 06:42:00,
2013-03-07 01:52:00,35.0,-99.9,29.83,North,10,9.0,21.0,-999,-99.99,,,-99.99,,2013-03-07 06:52:00,
2013-03-07 02:02:00,35.0,-99.9,29.84,North,9,9.0,19.0,-999,-99.99,,,-99.99,,2013-03-07 07:02:00,
2013-03-07 02:11:00,35.0,-99.9,29.84,North,4,11.0,22.0,-999,-99.99,,,-99.99,,2013-03-07 07:11:00,
2013-03-07 02:22:00,36.0,-99.9,29.84,NNE,13,10.0,23.0,-999,-99.99,,,-99.99,,2013-03-07 07:22:00,
2013-03-07 02:32:00,36.0,-99.9,29.84,NNE,15,11.0,26.0,-999,-99.99,,,-99.99,,2013-03-07 07:32:00,
2013-03-07 02:43:00,36.0,-99.9,29.84,NNE,12,9.0,20.0,-999,-99.99,,,-99.99,,2013-03-07 07:43:00,
2013-03-07 02:53:00,36.0,-99.9,29.84,North,8,10.0,24.0,-999,-99.99,,,-99.99,,2013-03-07 07:53:00,
2013-03-07 03:03:00,36.0,-99.9,29.84,North,3,8.0,20.0,-999,-99.99,,,-99.99,,2013-03-07 08:03:00,
2013-03-07 03:12:00,37.0,-99.9,29.85,North,8,7.0,19.0,-999,-99.99,,,-99.99,,2013-03-07 08:12:00,
2013-03-07 03:23:00,37.0,-99.9,29.85,North,359,9.0,22.0,-999,-99.99,,,-99.99,,2013-03-07 08:23:00,
2013-03-07 03:34:00,37.0,-99.9,29.85,North,360,10.0,22.0,-999,-99.99,,,-99.99,,2013-03-07 08:34:00,
2013-03-07 03:45:00,37.0,-99.9,29.85,North,-999,9.0,23.0,-999,-99.99,,,-99.99,,2013-03-07 08:45:00,
2013-03-07 03:54:00,37.0,-99.9,29.86,North,1,10.0,25.0,-999,-99.99,,,-99.99,,2013-03-07 08:54:00,
2013-03-07 04:03:00,37.0,-99.9,29.86,North,3,10.0,23.0,-999,-99.99,,,-99.99,,2013-03-07 09:03:00,
2013-03-07 04:14:00,38.0,-99.9,29.87,North,359,11.0,23.0,-999,-99.99,,,-99.99,,2013-03-07 09:14:00,
2013-03-07 04:24:00,38.0,-99.9,29.87,North,355,11.0,22.0,-999,-99.99,,,-99.99,,2013-03-07 09:24:00,
2013-03-07 04:33:00,38.0,-99.9,29.88,North,352,11.0,23.0,-999,-99.99,,,-99.99,,2013-03-07 09:33:00,
2013-03-07 04:43:00,37.0,-99.9,29.88,North,3,9.0,19.0,-999,-99.99,,,-99.99,,2013-03-07 09:43:00,
2013-03-07 04:54:00,37.0,-99.9,29.88,North,358,9.0,24.0,-999,-99.99,,,-99.99,,2013-03-07 09:54:00,
2013-03-07 05:04:00,37.0,-99.9,29.89,North,4,10.0,27.0,-999,-99.99,,,-99.99,,2013-03-07 10:04:00,
2013-03-07 05:24:00,38.0,-99.9,29.89,North,6,9.0,20.0,-999,-99.99,,,-99.99,,2013-03-07 10:24:00,
2013-03-07 05:33:00,38.0,-99.9,29.90,North,360,7.0,19.0,-999,-99.99,,,-99.99,,2013-03-07 10:33:00,
2013-03-07 05:43:00,37.0,-99.9,29.90,North,359,10.0,19.0,-999,-99.99,,,-99.99,,2013-03-07 10:43:00,
2013-03-07 05:54:00,37.0,-99.9,29.91,North,359,9.0,21.0,-999,-99.99,,,-99.99,,2013-03-07 10:54:00,
2013-03-07 06:04:00,37.0,-99.9,29.91,North,358,10.0,24.0,-999,-99.99,,,-99.99,,2013-03-07 11:04:00,
2013-03-07 06:12:00,37.0,-99.9,29.91,North,359,11.0,23.0,-999,-99.99,,,-99.99,,2013-03-07 11:12:00,
2013-03-07 06:23:00,37.0,-99.9,29.91,North,3,9.0,24.0,-999,-99.99,,,-99.99,,2013-03-07 11:23:00,
2013-03-07 06:34:00,37.0,-99.9,29.91,North,4,10.0,26.0,-999,-99.99,,,-99.99,,2013-03-07 11:34:00,
2013-03-07 06:44:00,37.0,-99.9,29.91,North,357,11.0,24.0,-999,-99.99,,,-99.99,,2013-03-07 11:44:00,
2013-03-07 06:55:00,37.0,-99.9,29.92,North,358,11.0,21.0,-999,-99.99,,,-99.99,,2013-03-07 11:55:00,
2013-03-07 07:04:00,38.0,-99.9,29.93,North,350,11.0,24.0,-999,-99.99,,,-99.99,,2013-03-07 12:04:00,
2013-03-07 07:13:00,38.0,-99.9,29.93,North,353,13.0,27.0,-999,-99.99,,,-99.99,,2013-03-07 12:13:00,
2013-03-07 07:23:00,38.0,-99.9,29.94,North,357,14.0,23.0,-999,-99.99,,,-99.99,,2013-03-07 12:23:00,
2013-03-07 07:34:00,38.0,-99.9,29.94,North,354,12.0,22.0,-999,-99.99,,,-99.99,,2013-03-07 12:34:00,
2013-03-07 07:43:00,38.0,-99.9,29.95,North,1,14.0,29.0,-999,-99.99,,,-99.99,,2013-03-07 12:43:00,
2013-03-07 07:53:00,38.0,-99.9,29.95,North,355,13.0,23.0,-999,-99.99,,,-99.99,,2013-03-07 12:53:00,
2013-03-07 08:03:00,38.0,-99.9,29.95,North,359,21.0,31.0,-999,-99.99,,,-99.99,,2013-03-07 13:03:00,
2013-03-07 08:13:00,38.0,-99.9,29.96,North,360,17.0,26.0,-999,-99.99,,,-99.99,,2013-03-07 13:13:00,
2013-03-07 08:23:00,38.0,-99.9,29.96,North,358,16.0,26.0,-999,-99.99,,,-99.99,,2013-03-07 13:23:00,
2013-03-07 08:33:00,39.0,-99.9,29.96,North,358,18.0,30.0,-999,-99.99,,,-99.99,,2013-03-07 13:33:00,
2013-03-07 08:43:00,38.0,-99.9,29.96,North,360,19.0,28.0,-999,-99.99,,,-99.99,,2013-03-07 13:43:00,
2013-03-07 08:53:00,38.0,-99.9,29.96,North,-999,15.0,22.0,-999,-99.99,,,-99.99,,2013-03-07 13:53:00,
2013-03-07 09:02:00,38.0,-99.9,29.96,North,5,17.0,28.0,-999,-99.99,,,-99.99,,2013-03-07 14:02:00,
2013-03-07 09:34:00,38.0,-99.9,29.97,North,2,17.0,29.0,-999,-99.99,,,-99.99,,2013-03-07 14:34:00,
2013-03-07 09:43:00,39.0,-99.9,29.98,North,360,19.0,26.0,-999,-99.99,,,-99.99,,2013-03-07 14:43:00,
2013-03-07 09:54:00,39.0,-99.9,29.98,North,-999,12.0,19.0,-999,-99.99,,,-99.99,,2013-03-07 14:54:00,
2013-03-07 10:03:00,40.0,-99.9,29.98,North,359,16.0,24.0,-999,-99.99,,,-99.99,,2013-03-07 15:03:00,
2013-03-07 10:13:00,40.0,-99.9,29.98,North,359,15.0,21.0,-999,-99.99,,,-99.99,,2013-03-07 15:13:00,
2013-03-07 10:23:00,40.0,-99.9,29.99,North,358,19.0,23.0,-999,-99.99,,,-99.99,,2013-03-07 15:23:00,
2013-03-07 10:43:00,41.0,-99.9,29.99,North,354,17.0,24.0,-999,-99.99,,,-99.99,,2013-03-07 15:43:00,
2013-03-07 10:53:00,41.0,-99.9,29.99,North,356,17.0,23.0,-999,-99.99,,,-99.99,,2013-03-07 15:53:00,
2013-03-07 11:03:00,41.0,-99.9,29.99,North,356,19.0,27.0,-999,-99.99,,,-99.99,,2013-03-07 16:03:00,
2013-03-07 11:13:00,42.0,-99.9,29.99,North,356,14.0,21.0,-999,-99.99,,,-99.99,,2013-03-07 16:13:00,
2013-03-07 11:24:00,43.0,-99.9,29.99,North,358,15.0,24.0,-999,-99.99,,,-99.99,,2013-03-07 16:24:00,
2013-03-07 11:33:00,41.0,-99.9,29.99,North,357,18.0,24.0,-999,-99.99,,,-99.99,,2013-03-07 16:33:00,
2013-03-07 11:43:00,41.0,-99.9,29.99,North,358,17.0,23.0,-999,-99.99,,,-99.99,,2013-03-07 16:43:00,
2013-03-07 11:53:00,41.0,-99.9,30.00,North,359,13.0,19.0,-999,-99.99,,,-99.99,,2013-03-07 16:53:00,
2013-03-07 12:03:00,41.0,-99.9,30.00,North,356,12.0,19.0,-999,-99.99,,,-99.99,,2013-03-07 17:03:00,
2013-03-07 12:12:00,42.0,-99.9,30.00,NNW,348,14.0,19.0,-999,-99.99,,,-99.99,,2013-03-07 17:12:00,
2013-03-07 12:23:00,42.0,-99.9,30.00,NNW,344,12.0,20.0,-999,-99.99,,,-99.99,,2013-03-07 17:23:00,
2013-03-07 12:44:00,42.0,-99.9,30.00,NNW,345,13.0,19.0,-999,-99.99,,,-99.99,,2013-03-07 17:44:00,
2013-03-07 12:55:00,42.0,-99.9,30.00,NNW,336,14.0,19.0,-999,-99.99,,,-99.99,,2013-03-07 17:55:00,
2013-03-07 13:04:00,42.0,-99.9,29.99,NNW,338,13.0,17.0,-999,-99.99,,,-99.99,,2013-03-07 18:04:00,
2013-03-07 13:13:00,42.0,-99.9,29.99,NNW,331,15.0,19.0,-999,-99.99,,,-99.99,,2013-03-07 18:13:00,
2013-03-07 13:22:00,41.0,-99.9,29.99,NNW,327,19.0,23.0,-999,-99.99,,,-99.99,,2013-03-07 18:22:00,
2013-03-07 13:33:00,41.0,-99.9,29.99,NNW,329,21.0,28.0,-999,-99.99,,,-99.99,,2013-03-07 18:33:00,
2013-03-07 13:43:00,42.0,-99.9,29.98,NNW,331,19.0,24.0,-999,-99.99,,,-99.99,,2013-03-07 18:43:00,
2013-03-07 13:53:00,42.0,-99.9,29.98,NNW,327,19.0,25.0,-999,-99.99,,,-99.99,,2013-03-07 18:53:00,
2013-03-07 14:03:00,42.0,-99.9,29.99,NNW,327,20.0,25.0,-999,-99.99,,,-99.99,,2013-03-07 19:03:00,
2013-03-07 14:12:00,42.0,-99.9,29.98,NNW,329,18.0,23.0,-999,-99.99,,,-99.99,,2013-03-07 19:12:00,
2013-03-07 14:24:00,42.0,-99.9,29.98,NNW,330,17.0,22.0,-999,-99.99,,,-99.99,,2013-03-07 19:24:00,
2013-03-07 14:35:00,42.0,-99.9,29.98,NNW,332,17.0,24.0,-999,-99.99,,,-99.99,,2013-03-07 19:35:00,
2013-03-07 14:44:00,43.0,-99.9,29.98,NW,324,9.0,17.0,-999,-99.99,,,-99.99,,2013-03-07 19:44:00,
2013-03-07 14:53:00,43.0,-99.9,29.98,NNW,327,9.0,19.0,-999,-99.99,,,-99.99,,2013-03-07 19:53:00,
2013-03-07 15:02:00,42.0,-99.9,29.98,NNW,332,17.0,23.0,-999,-99.99,,,-99.99,,2013-03-07 20:02:00,
2013-03-07 15:14:00,42.0,-99.9,29.98,NNW,333,16.0,22.0,-999,-99.99,,,-99.99,,2013-03-07 20:14:00,
2013-03-07 15:23:00,42.0,-99.9,29.98,NW,326,18.0,23.0,-999,-99.99,,,-99.99,,2013-03-07 20:23:00,
2013-03-07 15:34:00,42.0,-99.9,29.98,NNW,329,21.0,27.0,-999,-99.99,,,-99.99,,2013-03-07 20:34:00,
2013-03-07 15:43:00,42.0,-99.9,29.98,NNW,329,19.0,25.0,-999,-99.99,,,-99.99,,2013-03-07 20:43:00,
2013-03-07 15:54:00,42.0,-99.9,29.99,NNW,328,21.0,25.0,-999,-99.99,,,-99.99,,2013-03-07 20:54:00,
2013-03-07 16:03:00,42.0,-99.9,29.99,NNW,329,18.0,23.0,-999,-99.99,,,-99.99,,2013-03-07 21:03:00,
2013-03-07 16:13:00,42.0,-99.9,29.99,NNW,332,18.0,26.0,-999,-99.99,,,-99.99,,2013-03-07 21:13:00,
2013-03-07 16:23:00,42.0,-99.9,29.99,NNW,333,18.0,23.0,-999,-99.99,,,-99.99,,2013-03-07 21:23:00,
2013-03-07 16:33:00,42.0,-99.9,29.99,NNW,334,18.0,23.0,-999,-99.99,,,-99.99,,2013-03-07 21:33:00,
2013-03-07 16:43:00,42.0,-99.9,29.99,NNW,334,17.0,23.0,-999,-99.99,,,-99.99,,2013-03-07 21:43:00,
2013-03-07 16:53:00,42.0,-99.9,29.99,NNW,330,19.0,24.0,-999,-99.99,,,-99.99,,2013-03-07 21:53:00,
2013-03-07 17:02:00,42.0,-99.9,29.99,NNW,331,17.0,22.0,-999,-99.99,,,-99.99,,2013-03-07 22:02:00,
2013-03-07 17:12:00,42.0,-99.9,30.00,NNW,332,18.0,24.0,-999,-99.99,,,-99.99,,2013-03-07 22:12:00,
2013-03-07 17:23:00,42.0,-99.9,30.00,NNW,328,17.0,22.0,-999,-99.99,,,-99.99,,2013-03-07 22:23:00,
2013-03-07 17:33:00,42.0,-99.9,30.00,NNW,329,17.0,22.0,-999,-99.99,,,-99.99,,2013-03-07 22:33:00,
2013-03-07 17:44:00,42.0,-99.9,30.00,NNW,330,16.0,20.0,-999,-99.99,,,-99.99,,2013-03-07 22:44:00,
2013-03-07 17:55:00,42.0,-99.9,30.00,NNW,329,18.0,23.0,-999,-99.99,,,-99.99,,2013-03-07 22:55:00,
2013-03-07 18:03:00,42.0,-99.9,30.01,NW,320,6.0,15.0,-999,-99.99,,,-99.99,,2013-03-07 23:03:00,
2013-03-07 18:13:00,42.0,-99.9,30.01,NW,324,10.0,18.0,-999,-99.99,,,-99.99,,2013-03-07 23:13:00,
2013-03-07 18:22:00,42.0,-99.9,30.01,NW,324,9.0,19.0,-999,-99.99,,,-99.99,,2013-03-07 23:22:00,
2013-03-07 18:35:00,42.0,-99.9,30.01,NNW,329,9.0,18.0,-999,-99.99,,,-99.99,,2013-03-07 23:35:00,
2013-03-07 18:44:00,42.0,-99.9,30.02,NNW,335,14.0,19.0,-999,-99.99,,,-99.99,,2013-03-07 23:44:00,
2013-03-07 18:54:00,42.0,-99.9,30.02,North,349,11.0,16.0,-999,-99.99,,,-99.99,,2013-03-07 23:54:00,
2013-03-07 19:05:00,42.0,-99.9,30.03,North,358,11.0,16.0,-999,-99.99,,,-99.99,,2013-03-08 00:05:00,
2013-03-07 19:13:00,42.0,-99.9,30.03,North,-999,7.0,13.0,-999,-99.99,,,-99.99,,2013-03-08 00:13:00,
2013-03-07 19:23:00,42.0,-99.9,30.04,North,6,9.0,13.0,-999,-99.99,,,-99.99,,2013-03-08 00:23:00,
2013-03-07 19:35:00,42.0,-99.9,30.04,North,5,8.0,12.0,-999,-99.99,,,-99.99,,2013-03-08 00:35:00,
2013-03-07 19:44:00,42.0,-99.9,30.04,North,4,7.0,13.0,-999,-99.99,,,-99.99,,2013-03-08 00:44:00,
2013-03-07 19:54:00,42.0,-99.9,30.05,North,7,7.0,13.0,-999,-99.99,,,-99.99,,2013-03-08 00:54:00,
2013-03-07 20:02:00,41.0,-99.9,30.05,North,2,6.0,11.0,-999,-99.99,,,-99.99,,2013-03-08 01:02:00,
2013-03-07 20:12:00,41.0,-99.9,30.05,North,10,6.0,11.0,-999,-99.99,,,-99.99,,2013-03-08 01:12:00,
2013-03-07 20:22:00,41.0,-99.9,30.05,North,11,6.0,13.0,-999,-99.99,,,-99.99,,2013-03-08 01:22:00,
2013-03-07 20:33:00,41.0,-99.9,30.05,NNE,15,6.0,11.0,-999,-99.99,,,-99.99,,2013-03-08 01:33:00,
2013-03-07 20:42:00,41.0,-99.9,30.05,North,11,7.0,14.0,-999,-99.99,,,-99.99,,2013-03-08 01:42:00,
2013-03-07 20:52:00,41.0,-99.9,30.05,NNE,12,7.0,11.0,-999,-99.99,,,-99.99,,2013-03-08 01:52:00,
2013-03-07 21:02:00,41.0,-99.9,30.05,NNE,16,8.0,14.0,-999,-99.99,,,-99.99,,2013-03-08 02:02:00,
2013-03-07 21:12:00,41.0,-99.9,30.06,NNE,21,6.0,13.0,-999,-99.99,,,-99.99,,2013-03-08 02:12:00,
2013-03-07 21:22:00,41.0,-99.9,30.05,NNE,22,7.0,11.0,-999,-99.99,,,-99.99,,2013-03-08 02:22:00,
2013-03-07 21:32:00,40.0,-99.9,30.05,NNE,15,10.0,16.0,-999,-99.99,,,-99.99,,2013-03-08 02:32:00,
2013-03-07 21:42:00,40.0,-99.9,30.05,NNE,18,8.0,17.0,-999,-99.99,,,-99.99,,2013-03-08 02:42:00,
2013-03-07 21:53:00,40.0,-99.9,30.05,NNE,23,6.0,11.0,-999,-99.99,,,-99.99,,2013-03-08 02:53:00,
2013-03-07 22:02:00,40.0,-99.9,30.06,NNE,23,5.0,11.0,-999,-99.99,,,-99.99,,2013-03-08 03:02:00,
2013-03-07 22:12:00,40.0,-99.9,30.05,NNE,21,5.0,12.0,-999,-99.99,,,-99.99,,2013-03-08 03:12:00,
2013-03-07 22:23:00,40.0,-99.9,30.05,NNE,23,5.0,13.0,-999,-99.99,,,-99.99,,2013-03-08 03:23:00,
2013-03-07 22:33:00,39.0,-99.9,30.05,NNE,19,4.0,9.0,-999,-99.99,,,-99.99,,2013-03-08 03:33:00,
2013-03-07 22:43:00,39.0,-99.9,30.05,NNE,12,7.0,15.0,-999,-99.99,,,-99.99,,2013-03-08 03:43:00,
2013-03-07 22:53:00,39.0,-99.9,30.05,NNE,12,6.0,14.0,-999,-99.99,,,-99.99,,2013-03-08 03:53:00,
2013-03-07 23:12:00,39.0,-99.9,30.06,North,2,10.0,17.0,-999,-99.99,,,-99.99,,2013-03-08 04:12:00,
2013-03-07 23:22:00,39.0,-99.9,30.06,North,360,12.0,17.0,-999,-99.99,,,-99.99,,2013-03-08 04:22:00,
2013-03-07 23:32:00,39.0,-99.9,30.06,North,359,11.0,17.0,-999,-99.99,,,-99.99,,2013-03-08 04:32:00,
2013-03-07 23:42:00,39.0,-99.9,30.06,North,3,7.0,19.0,-999,-99.99,,,-99.99,,2013-03-08 04:42:00,
2013-03-07 23:52:00,38.0,-99.9,30.06,North,3,8.0,15.0,-999,-99.99,,,-99.99,,2013-03-08 04:52:00,